Checkmate 5

operational
NORAD ID: 56163 Int'l Des: 2023-050 Owner: SDA Country: US
LEOCIRCULARPOLAR

关于 Checkmate 5

正在加载描述...

实时位置

正在加载3D地球...

即将过境

高度历史

Altitude vs Time

uPlot chart will show altitude changes over time

两行轨道根数

1 56163U 23050B 26074.28008788 .00000094 00000-0 73693-4 0 9996
2 56163 81.0035 161.6382 0006229 203.4888 156.5985 13.84967540149166
Epoch: Mar 15, 2026 • Age: 6 hours

当前状态

高度 952.2 km
速度 7.38 km/s
星下点 47.54°N, 30.01°W
发射日期 Apr 2, 2023
运行时间 2.9 years
类型 other

技术详情

分类 Payload
质量 300.00 kg
干质量 300.00 kg
总质量 300.00 kg
长度 1.00 m
直径 0.60 m
跨度 2.00 m
形状 Box + panels
制造商 YORKSS
平台类型 S-Class
阶段状态 In Orbit
所有者/国家 SDA/US

大型星座

Loading constellations...